STARLINK-5751, 55576

Orbit data source: Space-Track

STARLINK-5751, 55576 is a payload satellite owned by SpaceX/Seattle (US) in LEO that was launched on Sun, 12 Feb 2023 UTC via an FALCON 9 launch vehicle from the Air Force Eastern Test Range (AFETR). Payload-class satellites include a variety of spacecraft equipped with specific instruments for various scientific and technological missions. These include communications satellites like Starlink; space stations such as the ISS; scientific satellites like the Hubble; Earth observation satellites from companies like Planet Labs, Umbra, and HawkEye 360; GPS; miniature CubeSats for education and research; and military/defense satellites.

Loading next visibility...
Identifier
55576, 2023-020H
Orbit
LEO
Country
Flag of USUS
Related business
Manufacturer
SpaceX/Seattle
Mission
Operational Commercial Communications
Bus & Motor
STARLINK, Unknown motor
Mass
305 kg wet, ~290 kg dry
Launch date (UTC)
2023-02-12 (3 years ago)
Launch vehicle
FALCON 9
Launch site
Air Force Eastern Test Range (AFETR)
Object type
Payload
Rocket body
Debris
Shape & HBR
Box + 1 Pan, 10.1 m
Radar Cross Section
13.562 m², Large (>1 m²)

Expand to show TLE details & history
Last TLE update: 22 hours ago

TLE from 22 hours ago
0 STARLINK-5751
1 55576U 23020H   25344.69563981  .00000930  00000-0  83912-4 0  9999
2 55576  43.0040 102.1059 0001342 273.0450  87.0239 15.02538352155835
Epoch: 2025-12-10T16:41Z
TLE epoch observation values (Epoch: 2025-12-10T16:41:43.279Z)
Latitude
-0.00001°
Longitude
132.01329°
Altitude
558.802 km
Speed
7.584 km/s
True Right ascension
06h 48m 25s
True Declination
0° 00' 00"
Sunlit
Object was in full shadow at epoch
Visualization orbit readout
Latitude
Unknown
Longitude
Unknown
Altitude
Unknown
Speed
Unknown
Apparent Right ascension
Unknown
Apparent Declination
Unknown
Sunlit
N/A
Visualization observer readout
Local Sidereal Time
12:58:32
Azimuth
Unknown
Elevation
Unknown
Doppler factor
Unknown
Orbital elements
Apogee altitude
561.927 km
Perigee altitude
560.064 km
Semi-major axis
6,939.133 km
Eccentricity
0.00013
Inclination
43.004°
RAAN
102.1059°
Arg. of periapsis
273.045°
True anomaly
87.03926°
Mean anomaly
87.0239°
Eccentric anomaly
87.03158°
Mean motion
3.75479 °/min
Orbital period
95.88 mins
BSTAR
0.000083912
Loading maneuver chart data...
Computing Atmospheric mass density...
Loading historical data...
Loading historical data...
Loading historical data...
Loading historical data...
Loading historical data...
Loading historical data...
Loading historical data...

Documentation

Showing up to 5 results
|